CARTOSAT-2F

Last updated on Thu Jul 03 2025 00:02:30 GMT+0000 (Coordinated Universal Time)

1 43111U 18004A 25183.60310598 .00003812 28260-8 18153-3 0 9995 2 43111 97.4531 243.6181 0002067 70.1455 290.0002 15.19187175414257
UTC large
Height (km)
Speed (km/s)
/
Latitude / Longitude
Inclination (degrees)
Orbital Period (minutes)
Azimuth
Elevation
Range (km)
Doppler Factor

Next 0 passes for location: London (51.5072 / 0.1276)

Sorry there are no passes over London.